sat.trackr.live / text

‹ back to catalog

TRANSPORTER-14 OBJECT BQ

NORAD 64590 · 2025-135BQ

PAYLOAD ACTIVE UNKNOWN

§ Identity

Operator
Country
TBD
Launch date
2025-06-23
Launch site
AFWTR
Launch vehicle
Mass (kg)
RCS (m²)

External: N2YO · Heavens-Above · Gunter

§ Orbital elements

Epoch: 2026-05-24T19:36:56.257920Z

Period
96.39 min
Inclination
97.7694°
Eccentricity
0.0006560
Mean motion
14.93976554 rev/d
Perigee alt
581.0 km
Apogee alt
590.1 km
Semi-major
6,963.7 km
B*
1.3119e-4
RAAN
259.5194°
Arg perigee
59.4295°
Mean anomaly
300.7572°
Rev number
5,041

§ Raw data

TRANSPORTER-14 OBJECT BQ1 64590U 25135BQ  26144.81731780  .00001341  00000+0  13119-3 0  99982 64590  97.7694 259.5194 0006560  59.4295 300.7572 14.93976554 50411

JSON: /api/v1/satellites/64590 · /tle

For live sub-satellite position, see the globe view (requires WebGL).

§ Visibility from observer

Set your observer location to see the next 7 days of passes ≥ 10°. The values pass through the URL so the page stays shareable.

No JS? Fill the form by hand. The geolocation button needs JavaScript.